Weather History for South Lake Tahoe, CA

Change the Weather History Date:

Sunday, October 6, 2013

  Actual Average Record
Temperature  
Mean Temperature 49 °F 48 °F  
Max Temperature 73 °F 67 °F 78 °F (2014)
Min Temperature 25 °F 30 °F 18 °F (1969)
Degree Days  
Heating Degree Days 16 17  
Month to date heating degree days 116 96  
Since 1 July heating degree days 544 722  
Cooling Degree Days 0 0  
Month to date cooling degree days 0 0  
Year to date cooling degree days 104 31  
Moisture  
Dew Point 19 °F    
Average Humidity 41    
Maximum Humidity 68    
Minimum Humidity 13    
Precipitation  
Precipitation 0.00 in - 0.60 in (1993)
Month to date precipitation 0.00  
Year to date precipitation 7.15  
Sea Level Pressure  
Sea Level Pressure 30.29 in    
Wind  
Wind Speed 2 mph (South)    
Max Wind Speed 9 mph    
Max Gust Speed 15 mph    
Visibility 7 miles    
Events      
T = Trace of Precipitation, MM = Missing Value Source: NWS Daily Summary

Daily Weather History Graph

Daily Weather History Graph

Search for Another Location

Airport:

Trip Planner

Search our weather history database for the weather conditions in past years. The results will help you decide how hot, cold, wet, or windy it might be!

Date:

Astronomy

Oct. 06, 2013 Rise Set
Actual Time 7:00 AM PDT 6:34 PM PDT
Civil Twilight 6:34 AM PDT 7:00 PM PDT
Nautical Twilight 6:03 AM PDT 7:31 PM PDT
Astronomical Twilight 5:32 AM PDT 8:02 PM PDT
Moon 8:49 AM PDT (10/6) 7:38 PM PDT (10/6)
Length of Visible Light 12h 26m
Length of Day
11h 33m
Waxing Crescent, 4% of the Moon is Illuminated
Oct 6
Waxing Crescent
Oct 11
First Quarter
Oct 18
Full
Oct 26
Last Quarter
Nov 3
New

Hourly Weather History & Observations

Time (PDT) Temp. Windchill Dew Point Humidity Pressure Visibility Wind Dir Wind Speed Gust Speed Precip Events Conditions
12:28 AM 30.2 °F - 17.6 °F 60% 30.39 in 2.5 mi Calm Calm - N/A   Haze
12:38 AM 30.2 °F - 17.6 °F 60% 30.39 in 5.0 mi Calm Calm - N/A   Haze
12:53 AM 30.0 °F 26.5 °F 17.1 °F 59% 30.33 in 5.0 mi South 3.5 mph - N/A   Haze
1:53 AM 28.9 °F 25.2 °F 18.0 °F 64% 30.32 in 9.0 mi South 3.5 mph - N/A   Clear
2:04 AM 28.4 °F 23.3 °F 17.6 °F 64% 30.39 in 4.0 mi South 4.6 mph - N/A   Haze
2:23 AM 28.4 °F - 17.6 °F 64% 30.39 in 8.0 mi Calm Calm - N/A   Clear
2:44 AM 28.4 °F - 17.6 °F 64% 30.38 in 2.5 mi Calm Calm - N/A   Haze
2:53 AM 28.9 °F - 17.1 °F 61% 30.30 in 4.0 mi Calm Calm - N/A   Haze
3:01 AM 28.4 °F 24.6 °F 17.6 °F 64% 30.37 in 10.0 mi South 3.5 mph - N/A   Clear
3:53 AM 28.0 °F 24.2 °F 17.1 °F 63% 30.29 in 7.0 mi South 3.5 mph - N/A   Clear
4:16 AM 28.4 °F - 15.8 °F 59% 30.36 in 4.0 mi Calm Calm - N/A   Haze
4:24 AM 28.4 °F - 17.6 °F 64% 30.36 in 9.0 mi Calm Calm - N/A   Clear
4:53 AM 27.0 °F 21.6 °F 17.1 °F 66% 30.29 in 10.0 mi South 4.6 mph - N/A   Clear
5:00 AM 26.6 °F 22.6 °F 15.8 °F 64% 30.36 in 2.5 mi SSW 3.5 mph - N/A   Haze
5:15 AM 26.6 °F - 15.8 °F 64% 30.36 in 5.0 mi Calm Calm - N/A   Haze
5:23 AM 26.6 °F - 15.8 °F 64% 30.36 in 3.0 mi Calm Calm - N/A   Haze
5:34 AM 26.6 °F 21.2 °F 15.8 °F 64% 30.36 in 10.0 mi South 4.6 mph - N/A   Clear
5:53 AM 27.0 °F - 16.0 °F 63% 30.32 in 6.0 mi Calm Calm - N/A   Haze
6:53 AM 26.1 °F 20.5 °F 16.0 °F 66% 30.34 in 6.0 mi SSW 4.6 mph - N/A   Haze
7:04 AM 24.8 °F 19.1 °F 15.8 °F 69% 30.37 in 2.5 mi South 4.6 mph - N/A   Haze
7:10 AM 24.8 °F 20.5 °F 15.8 °F 69% 30.37 in 5.0 mi SSW 3.5 mph - N/A   Haze
7:53 AM 27.0 °F 21.6 °F 16.0 °F 63% 30.35 in 10.0 mi South 4.6 mph - N/A   Clear
8:53 AM 37.0 °F 34.5 °F 19.0 °F 48% 30.34 in 9.0 mi South 3.5 mph - N/A   Clear
9:53 AM 53.1 °F - 28.0 °F 38% 30.31 in 10.0 mi NE 3.5 mph - N/A   Clear
10:53 AM 60.1 °F - 30.0 °F 32% 30.28 in 10.0 mi Variable 6.9 mph - N/A   Clear
11:53 AM 64.0 °F - 28.9 °F 27% 30.25 in 10.0 mi NNE 6.9 mph - N/A   Clear
12:53 PM 66.9 °F - 27.0 °F 22% 30.21 in 10.0 mi Variable 5.8 mph - N/A   Clear
1:40 PM 66.2 °F - 19.4 °F 17% 30.29 in 3.0 mi Variable 3.5 mph - N/A   Haze
1:53 PM 66.9 °F - 21.9 °F 18% 30.21 in 4.0 mi Variable 3.5 mph - N/A   Haze
2:06 PM 69.8 °F - 15.8 °F 13% 30.29 in 7.0 mi Variable 4.6 mph - N/A   Clear
2:31 PM 71.6 °F - 17.6 °F 13% 30.28 in 2.5 mi NNE 4.6 mph - N/A   Haze
2:39 PM 69.8 °F - 17.6 °F 14% 30.27 in 4.0 mi NE 5.8 mph - N/A   Haze
2:46 PM 69.8 °F - 17.6 °F 14% 30.27 in 10.0 mi Variable 4.6 mph - N/A   Clear
2:53 PM 71.1 °F - 18.0 °F 13% 30.17 in 9.0 mi NNE 4.6 mph - N/A   Clear
3:10 PM 71.6 °F - 19.4 °F 14% 30.27 in 2.5 mi Variable 3.5 mph - N/A   Haze
3:22 PM 73.4 °F - 17.6 °F 12% 30.26 in 5.0 mi NNE 5.8 mph - N/A   Haze
3:53 PM 72.0 °F - 19.0 °F 13% 30.16 in 10.0 mi Calm Calm - N/A   Clear
4:53 PM 69.1 °F - 23.0 °F 18% 30.16 in 10.0 mi North 4.6 mph - N/A   Clear
5:53 PM 64.0 °F - 27.0 °F 25% 30.17 in 10.0 mi Calm Calm - N/A   Clear
6:53 PM 57.0 °F - 26.1 °F 30% 30.18 in 10.0 mi Calm Calm - N/A   Clear
7:53 PM 51.1 °F - 23.0 °F 33% 30.21 in 10.0 mi Calm Calm - N/A   Clear
8:53 PM 46.0 °F 43.9 °F 21.9 °F 39% 30.20 in 10.0 mi South 4.6 mph - N/A   Clear
9:53 PM 44.1 °F - 21.9 °F 42% 30.17 in 10.0 mi Calm Calm - N/A   Clear
10:53 PM 39.9 °F - 21.0 °F 47% 30.17 in 10.0 mi Calm Calm - N/A   Clear
11:53 PM 37.0 °F 34.5 °F 21.0 °F 52% 30.14 in 10.0 mi South 3.5 mph - N/A   Clear